Flag for Mauritania Weather past 2 weeks in Nouadhibou, Mauritania

Now
73 °F

Sandstorm.


Feels Like: 76 °F
Forecast: N/A
Wind: 23 mph from Northwest

Location: Nouadhibou Airport

Current Time: May 23, 2015 at 3:33:24 PM

Latest Report: May 23, 2015 at 3:00 PM


Visibility: 2 mi

Pressure: 29.98 "Hg

Humidity: 61%

Dew point: 59 °F

Location of NouadhibouLocation

Historic Weather in Nouadhibou — Graph

°F

Nouadhibou temperature yesterday

Maximum temperature yesterday: 82 °F (at 2:00 PM)
Minimum temperature yesterday: 63 °F (at 4:00 AM)
Average temperature yesterday: 69 °F

Past Weeks' High & Low Weather Summary

 TemperatureHumidityPressure
High108 °F (May 16, 2:00 PM)94% (May 11, 8:00 AM)32.75 "Hg (May 11, 8:00 AM)
Low63 °F (May 21, 5:00 AM)9% (May 16, 1:00 PM)29.74 "Hg (May 15, 6:00 PM)
Average72 °F69%29.90 "Hg
* Reported May 8 2:00 PM — May 23 2:00 PM, Nouadhibou, Weather by CustomWeather, © 2015

Note: Actual official high and low records may vary slightly from our data, if they occured in-between our weather recording intervals... More about our weather records

Advertising

Nouadhibou weather history for previous 24 hours

 ConditionsComfort  
Time TempWeatherWind HumidityBarometerVisibility
2:00 PM
Sat, May 23
75 °FPassing clouds.18 mph54%30.01 "Hg4 mi
1:00 PM79 °FPassing clouds.23 mph39%30.04 "Hg5 mi
12:00 PM77 °FPassing clouds.23 mph47%30.07 "Hg5 mi
11:00 AM73 °FPassing clouds.24 mph57%30.07 "Hg5 mi
10:00 AM70 °FPassing clouds.26 mph69%30.09 "Hg5 mi
9:00 AM66 °FPassing clouds.25 mph78%30.07 "Hg5 mi
8:00 AM64 °FPassing clouds.20 mph83%30.07 "Hg5 mi
7:00 AM63 °FPassing clouds.14 mph88%30.07 "Hg4 mi
6:00 AM63 °FPassing clouds.15 mph88%30.04 "Hg4 mi
5:00 AM63 °FClear.17 mph88%30.04 "Hg4 mi
4:00 AM63 °FSandstorm.17 mph88%30.01 "Hg4 mi
3:00 AM63 °FSandstorm.20 mph88%30.04 "Hg4 mi
2:00 AM64 °FSandstorm.20 mph83%30.04 "Hg4 mi
1:00 AM64 °FSandstorm.21 mph83%30.07 "Hg4 mi
12:00 AM64 °FSandstorm.22 mph78%30.07 "Hg4 mi
11:00 PM
Fri, May 22
66 °FSandstorm.22 mph73%30.07 "Hg4 mi
10:00 PM66 °FSandstorm.20 mph73%30.07 "Hg4 mi
9:00 PM66 °FSandstorm.20 mph73%30.04 "Hg4 mi
8:00 PM68 °FSandstorm.21 mph69%30.04 "Hg4 mi
7:00 PM68 °FSandstorm.22 mph73%30.04 "Hg4 mi
6:00 PM70 °FSandstorm.23 mph69%30.01 "Hg2 mi
5:00 PM72 °FSandstorm.22 mph65%30.01 "Hg2 mi
4:00 PM73 °FSandstorm.21 mph61%30.01 "Hg4 mi
3:00 PM75 °FSandstorm.17 mph57%30.04 "Hg5 mi
Weather by CustomWeather, © 2015

See weather overviewHow to use our weather pages